User: anonymous   Login
Location: Caltech
(34.1382°N, 118.1253°W)
Time: 06:58:00
(UTC-08:00)
Language:

Hubble Space Telescope - Orbit

View from above orbital plane
View from above orbital plane
View from above satellite
View from above satellite

Ground track
Ground track

The orbit data is extracted from the following two-line orbital elements,

1 20580U 90037B   15060.65190904  .00003617  00000-0  22470-3 0  9995
2 20580 028.4700 142.9881 0003204 155.9310 355.3247 15.06906182163573
Epoch (UTC): 01 March 2015 15:38:44
Eccentricity: 0.0003204
inclination: 28.4700°
perigee height: 543 km
apogee height: 548 km
right ascension of ascending node: 142.9881°
argument of perigee: 155.9310°
revolutions per day: 15.06906182
mean anomaly at epoch: 355.3247°
orbit number at epoch: 16357

The dashed part of the orbit path shows where the satellite is in the earth's shadow,  

DLR